sat.trackr.live / text

‹ back to catalog

STARLINK-6045

NORAD 56462 · 2023-064Q

PAYLOAD ACTIVE UNKNOWN

§ Identity

Operator
Country
US
Launch date
2023-05-10
Launch site
AFWTR
Launch vehicle
Mass (kg)
RCS (m²)

Purposes: comms

External: N2YO · Heavens-Above · Gunter

§ Orbital elements

Epoch: 2026-09-20T12:58:14.642400Z

Period
96.11 min
Inclination
69.9996°
Eccentricity
0.0003459
Mean motion
14.98332150 rev/d
Perigee alt
569.6 km
Apogee alt
574.5 km
Semi-major
6,950.2 km
B*
4.7440e-5
RAAN
332.9659°
Arg perigee
268.8449°
Mean anomaly
91.2314°
Rev number
18,542

§ Raw data

STARLINK-60451 56462U 23064Q   26263.54044725  .00000473  00000+0  47440-4 0  99942 56462  69.9996 332.9659 0003459 268.8449  91.2314 14.98332150185428

JSON: /api/v1/satellites/56462 · /tle

For live sub-satellite position, see the globe view (requires WebGL).

§ Visibility from observer

Set your observer location to see the next 7 days of passes ≥ 10°. The values pass through the URL so the page stays shareable.

No JS? Fill the form by hand. The geolocation button needs JavaScript.